Regional Weather Roundup
Issued by NWS Sterling, VA

Home | Current Version | Previous Version | Text Only | Print | Product List | Glossary On
Versions: 1 2 3 4 5 6 7 8 9 10 11 12 13 14 15 16 17 18 19 20 21 22 23 24 25 26 27 28 29 30 31 32 33 34 35 36 37 38 39 40 41 42 43 44 45 46 47 48 49 50
000
ASUS41 KLWX 312210
RWRLWX

REGIONAL WEATHER ROUNDUP
NATIONAL WEATHER SERVICE BALTIMORE MD/WASHINGTON DC
600 PM EDT TUE MAY 31 2016

Note: "FAIR" indicates few or no clouds below 12,000 feet
with no significant weather and/or obstructions to visibility.
 TC=TEMPERATURE CELSIUS

 * =Non NWS site. Station does not report precipitation (e.g. rain,
    snow, etc.), thunder, or fog.

DCZ001-MDZ009-015-VAZ040>042-051-053>054-312300-
WASHINGTON METRO

CITY           SKY/WX    TMP DP  RH WIND       PRES   REMARKS
WASHINGTON NAT PTSUNNY   83  67  58 S5        29.93S
DULLES         PTSUNNY   87  54  32 NW6       29.94S
ANDREWS AFB    MOSUNNY   81  67  63 SE3       29.94S
FT BELVOIR     FAIR      84  67  57 SE5       29.93S
QUANTICO       PTSUNNY   81  71  71 S3        29.95R
COLLEGE PARK*  FAIR      82  63  51 CALM      29.93S
LEESBURG*      FAIR      86  59  39 NW6       29.96R
MANASSAS*      SUNNY     84  66  54 SE3       29.94S

$$

MDZ006>007-011-014-312300-
BALTIMORE METRO

CITY           SKY/WX    TMP DP  RH WIND       PRES   REMARKS
BWI AIRPORT    PTSUNNY   84  62  47 CALM      29.93S
MD SCIENCE CTR   N/A     85  62  46 MISG      29.93S
MARTIN STATE   MOSUNNY   82  68  61 SE6         N/A
ANNAPOLIS      SUNNY     79  68  69 SE8       29.93S
FORT MEADE*    SUNNY     81  64  57 CALM      29.96S

$$

MDZ012-015-019>023-312300-
MARYLAND EASTERN SHORE

CITY           SKY/WX    TMP DP  RH WIND       PRES   REMARKS
OCEAN CITY     SUNNY     73  68  84 VRB5      29.95S
SALISBURY      TSTM      73  70  90 NE6G22    29.95R VSB 3/4
CAMBRIDGE*     SUNNY     81  64  57 CALM      29.93S
EASTON*        PTSUNNY   84  73  70 CALM      29.97S HX  91

$$

MDZ017>025-312300-
SOUTHERN MARYLAND

CITY           SKY/WX    TMP DP  RH WIND       PRES   REMARKS
PATUXENT RIVER MOSUNNY   80  65  59 SE6       29.94R
ST INIGOES     SUNNY     80  68  66 S6        29.93F
LEONARDTOWN*   CLOUDY    81  68  65 S3        29.96R

$$

MDZ003>005-312300-
NORTH CENTRAL MARYLAND

CITY           SKY/WX    TMP DP  RH WIND       PRES   REMARKS
FREDERICK*     MOSUNNY   84  61  45 E6        29.90F
HAGERSTOWN APT CLOUDY    86  53  32 CALM      29.96S
WESTMINSTER*   CLOUDY    84  72  65 N5        29.97S

$$

MDZ501>502-312300-
WESTERN MARYLAND

CITY           SKY/WX    TMP DP  RH WIND       PRES   REMARKS
OAKLAND*       CLOUDY    73  50  43 NW5       30.08S
CUMBERLAND*    CLOUDY    86  59  39 S5        30.00S

$$

VAZ025>031-312300-
SHENANDOAH VALLEY

CITY           SKY/WX    TMP DP  RH WIND       PRES   REMARKS
WINCHESTER*    FAIR      86  54  32 E5        29.97S
FRONT ROYAL*   FAIR      82  59  44 CALM      29.96S
LURAY*         FAIR      86  54  32 CALM      29.97S
NEW MARKET*    FAIR     N/A N/A N/A NE5       29.95S
STAUNTON*      FAIR      81  57  43 NE6       30.00S
WAYNESBORO*    MOCLDY    82  61  48 SE7       30.00S

$$

WVZ021-048>050-054>055-312300-
EASTERN WEST VIRGINIA PANHANDLE

CITY           SKY/WX    TMP DP  RH WIND       PRES   REMARKS
MARTINSBURG    FAIR      85  53  33 CALM      29.96R
PETERSBURG*    FAIR      85  58  39 CALM      29.99R

$$

VAZ036>039-050-312300-
CENTRAL FOOTHILLS

CITY           SKY/WX    TMP DP  RH WIND       PRES   REMARKS
CHARLOTTESVILL FAIR      85  63  47 E8        29.95S
CULPEPER*      FAIR      87  58  37 N3        29.95S
ORANGE*        FAIR      86  63  45 NE3       29.97S
GORDONSVILLE*  FAIR      84  67  56 SE5       29.95S
WARRENTON*     FAIR      88  50  26 NE5       29.94S

$$

VAZ055>057-312300-
NORTH AND CENTRAL PIEDMONT

CITY           SKY/WX    TMP DP  RH WIND       PRES   REMARKS
FREDERICKSBRG* PTSUNNY   85  68  56 CALM      29.93S
STAFFORD*      CLOUDY    81  65  58 NE3       29.98S

$$

NCZ024-NYZ072-PAZ021-071-VAZ022-071-312300-
OTHER REGIONAL OBSERVATIONS

CITY           SKY/WX    TMP DP  RH WIND       PRES   REMARKS
NEW YORK CITY  SUNNY     78  59  51 VRB5      29.94S
PHILADELPHIA   MOSUNNY   86  49  27 NW10      29.93R
PITTSBURGH     CLOUDY    85  54  34 N3        29.98S
ROANOKE        FAIR      82  63  52 S6        29.98F
RICHMOND       FAIR      82  67  60 E8        29.94S
RALEIGH        MOSUNNY   84  67  56 NE12      29.92F

$$

ANZ530>537-312300-
MARINE OBSERVATIONS

STATION/POSITION TIME  TEMP    WIND        PRES
                       AIR SEA DIR/SP/G
                 (UTC) (F)     (DEG/KT/KT) (MB)
THOMAS PT LIGHT  2200   77 71  200/  6/  6 1015.0R
BALT KEY BRIDGE  2100   80     140/  6/  7 1013.5F
COVE POINT       2100   76     180/  4/  4 1014.4F
LEWISETTA        2100   77 73   90/  3/  3 1013.6F
SOLOMONS ISLAND  2100   77 73  100/  4/  5   N/A
PINEY POINT      2100          190/  6/  7   N/A

$$




USA.gov is the U.S. government's official web portal to all federal, state and local government web resources and services.